Starlink 33842

operational
NORAD ID: 63782 Int'l Des: 2025-091 Owner: SPXS Country: US Constellation: starlink
LEOCIRCULAR

关于 Starlink 33842

正在加载描述...

实时位置

正在加载3D地球...

即将过境

高度历史

Altitude vs Time

uPlot chart will show altitude changes over time

两行轨道根数

1 63782U 25091H 26035.54956461 .00022770 00000-0 83435-3 0 9993
2 63782 42.9978 239.7036 0000717 218.2736 141.8065 15.27583170 43923
Epoch: Feb 4, 2026 • Age: 15 hours

当前状态

高度 491.1 km
速度 7.62 km/s
星下点 -31.52°S, 103.05°W
发射日期 May 2, 2025
运行时间 0.7 years
类型 internet

技术详情

分类 Payload
质量 575.00 kg
干质量 530.00 kg
总质量 575.00 kg
长度 0.30 m
直径 4.10 m
跨度 29.00 m
形状 Box + pan
制造商 SPXS
平台类型 Starlink V2MO
阶段状态 In Orbit
所有者/国家 SPXS/US

大型星座

Loading constellations...